FW6537 Weather Reports


time (UTC)temp
C
wind
direction
speed
KPH
gust
KPH
rain 1hr
cm
rain 24hr
cm
rain mn
cm
humidity
%
barometer
mb
20260507020153 7 101 0.0 0.0 0.00 2.11 1.85 94 1010.6
20260507014627 7 101 0.0 0.0 0.00 2.21 1.85 94 1010.6
20260507013127 7 101 0.0 0.0 0.00 2.21 1.85 93 1010.5
20260507010136 7 101 0.0 0.0 0.00 2.21 1.85 93 1010.5
20260507004656 7 101 0.0 0.0 0.00 2.21 1.85 92 1010.4
20260507003129 7 101 0.0 1.6 0.00 2.21 1.85 92 1010.3
20260507001647 7 101 0.0 3.2 0.00 2.21 1.85 92 1010.1
20260507000143 7 99 0.0 8.0 0.00 2.21 1.85 92 1009.9
20260506234631 7 101 0.0 1.6 0.00 2.21 1.85 93 1009.7
20260506233123 7 119 0.0 1.6 0.00 2.21 1.85 93 1009.5
20260506231622 7 119 0.0 0.0 0.00 2.21 1.85 92 1008.7
20260506230134 7 119 0.0 0.0 0.00 2.21 1.85 92 1008.9
20260506224635 7 119 0.0 1.6 0.00 2.21 1.85 91 1009.1
20260506223129 7 94 0.0 3.2 0.00 2.21 1.85 91 1009.3
20260506221625 7 103 0.0 3.2 0.00 2.21 1.85 92 1009.5
20260506220144 7 113 0.0 3.2 0.00 2.21 1.85 92 1009.2
20260506214659 7 121 0.0 4.8 0.00 2.34 1.85 93 1009.1
20260506213136 7 123 1.6 6.4 0.00 2.34 1.85 94 1009.0
20260506211628 7 104 0.0 6.4 0.00 2.34 1.85 94 1008.8
20260506210144 7 98 1.6 4.8 0.03 2.34 1.85 94 1008.7
20260506204635 7 84 1.6 6.4 0.03 2.39 1.85 95 1008.6
20260506203142 7 103 0.0 3.2 0.03 2.39 1.85 95 1008.4
20260506201636 7 127 0.0 6.4 0.03 2.39 1.85 95 1008.1
20260506200135 7 96 1.6 9.7 0.03 2.36 1.83 95 1008.2
20260506194622 7 129 1.6 8.0 0.05 2.36 1.83 95 1008.1
20260506193146 7 115 1.6 4.8 0.05 2.36 1.83 95 1008.2
20260506191635 7 122 0.0 3.2 0.05 2.36 1.83 95 1008.1
20260506190134 7 134 0.0 6.4 0.03 2.34 1.80 95 1008.0
20260506184634 7 150 1.6 9.7 0.03 2.36 1.78 95 1007.9
20260506183134 8 107 1.6 8.0 0.03 2.36 1.78 95 1007.6
20260506181629 8 135 1.6 4.8 0.03 2.36 1.78 95 1007.4
20260506180125 8 120 1.6 4.8 0.05 2.36 1.78 95 1007.1
20260506174639 8 106 0.0 3.2 0.03 2.34 1.75 95 1007.2
20260506173142 8 132 0.0 4.8 0.05 2.34 1.75 95 1006.9
20260506171633 7 120 1.6 6.4 0.10 2.34 1.75 95 1006.9
20260506170136 7 135 0.0 4.8 0.13 2.31 1.73 95 1007.1
20260506164628 7 114 0.0 3.2 0.15 2.31 1.73 96 1007.1
20260506163125 7 142 1.6 4.8 0.18 2.29 1.70 95 1007.1
20260506161622 7 141 0.0 3.2 0.15 2.24 1.65 95 1007.1
20260506160135 7 123 0.0 1.6 0.13 2.18 1.60 96 1007.4
20260506154632 7 135 0.0 1.6 0.10 2.16 1.57 95 1007.4
20260506153129 7 138 0.0 0.0 0.08 2.11 1.52 95 1007.7
20260506151636 7 138 1.6 3.2 0.08 2.08 1.50 95 1007.5
20260506150137 7 147 0.0 0.0 0.08 2.06 1.47 95 1007.0
20260506144630 7 147 0.0 0.0 0.13 2.06 1.47 95 1007.1
20260506143148 7 148 0.0 3.2 0.18 2.03 1.45 95 1007.3
20260506141629 7 147 0.0 3.2 0.23 2.01 1.42 95 1007.3
20260506140126 7 146 0.0 4.8 0.33 1.98 1.40 95 1007.2
20260506133144 7 126 0.0 6.4 0.38 1.85 1.27 95 1007.3
20260506131639 7 126 3.2 6.4 0.38 1.78 1.19 95 1007.5
20260506130136 7 147 0.0 4.8 0.30 1.65 1.07 95 1007.6
20260506124650 7 136 0.0 3.2 0.25 1.57 0.99 95 1007.2
20260506123122 7 152 0.0 1.6 0.18 1.47 0.89 95 1007.0
20260506121641 7 157 1.6 6.4 0.20 1.40 0.81 95 1007.0
20260506120131 7 145 1.6 4.8 0.23 1.35 0.76 95 1007.0
20260506114627 7 131 1.6 8.0 0.28 1.32 0.74 95 1007.1
20260506113128 7 140 3.2 4.8 0.33 1.30 0.71 95 1007.4
20260506111642 7 135 0.0 1.6 0.25 1.19 0.61 95 1007.6
20260506110135 7 101 0.0 1.6 0.20 1.12 0.53 95 1007.4
20260506104634 7 101 0.0 1.6 0.18 1.04 0.46 95 1007.6
20260506103132 7 141 0.0 1.6 0.13 0.94 0.36 95 1007.2
20260506101629 7 142 0.0 0.0 0.13 0.91 0.33 94 1007.3
20260506100130 7 141 0.0 1.6 0.13 0.91 0.33 94 1007.5
20260506094630 7 135 0.0 3.2 0.13 0.86 0.28 94 1007.7
20260506093124 7 118 0.0 3.2 0.10 0.81 0.23 94 1008.1
20260506091639 7 109 3.2 8.0 0.10 0.79 0.20 94 1007.3
20260506090134 7 158 3.2 8.0 0.13 0.79 0.20 94 1008.0
20260506084622 8 111 1.6 8.0 0.10 0.74 0.15 94 1008.2
20260506083125 8 168 4.8 9.7 0.08 0.71 0.13 94 1008.1
20260506081646 8 156 1.6 8.0 0.05 0.69 0.10 95 1007.9
20260506080125 8 131 1.6 3.2 0.03 0.66 0.08 95 1008.1
20260506073143 8 126 0.0 0.0 0.00 0.64 0.05 95 1007.7
20260506071638 8 126 0.0 0.0 0.05 0.64 0.05 95 1007.6
20260506070153 8 126 0.0 0.0 0.05 0.64 0.05 95 1007.4
20260506061640 8 128 0.0 1.6 0.00 0.58 0.00 95 1008.3
20260506060135 9 108 1.6 4.8 0.00 0.58 0.00 95 1008.4
20260506050139 9 117 0.0 0.0 0.00 0.58 0.00 94 1008.9
20260506044645 9 117 0.0 0.0 0.00 0.58 0.00 94 1009.1
20260506043159 9 117 0.0 0.0 0.03 0.58 0.00 94 1009.1
20260506041635 9 116 0.0 0.0 0.08 0.58 0.00 94 1009.5
20260506040125 9 124 0.0 0.0 0.10 0.58 0.00 94 1009.3
20260506034623 9 124 0.0 0.0 0.13 0.58 0.58 94 1009.7
20260506033135 9 82 0.0 0.0 0.15 0.56 0.56 93 1009.7
20260506031627 9 117 0.0 0.0 0.13 0.51 0.51 93 1009.9
20260506030126 9 117 0.0 0.0 0.15 0.48 0.48 93 1009.7
20260506024640 9 116 0.0 0.0 0.13 0.46 0.46 93 1009.5
20260506023135 9 116 0.0 1.6 0.10 0.41 0.41 92 1009.7
20260506021628 9 89 0.0 3.2 0.10 0.38 0.38 92 1009.7